sat.trackr.live / text

‹ back to catalog

STARLINK-2150

NORAD 47739 · 2021-017T

PAYLOAD ACTIVE UNKNOWN

§ Identity

Operator
Country
US
Launch date
2021-03-04
Launch site
AFETR
Launch vehicle
Mass (kg)
RCS (m²)

Purposes: comms

External: N2YO · Heavens-Above · Gunter

§ Orbital elements

Epoch: 2026-09-20T00:44:08.820960Z

Period
94.01 min
Inclination
53.1603°
Eccentricity
0.0001341
Mean motion
15.31690476 rev/d
Perigee alt
469.8 km
Apogee alt
471.7 km
Semi-major
6,848.9 km
B*
7.5813e-6
RAAN
34.7811°
Arg perigee
96.4014°
Mean anomaly
263.7140°
Rev number
30,746

§ Raw data

STARLINK-21501 47739U 21017T   26263.03065765 -.00000130  00000+0  75813-5 0  99952 47739  53.1603  34.7811 0001341  96.4014 263.7140 15.31690476307462

JSON: /api/v1/satellites/47739 · /tle

For live sub-satellite position, see the globe view (requires WebGL).

§ Visibility from observer

Set your observer location to see the next 7 days of passes ≥ 10°. The values pass through the URL so the page stays shareable.

No JS? Fill the form by hand. The geolocation button needs JavaScript.